Home   Weather   Roanoke   Past weeks
Flag for USA

Past Weather in Roanoke, Virginia, USA — Yesterday and Last 2 Weeks

Now
57 °F

Sunny.


Feels Like: 53 °F
Forecast: 66 / 45 °F
Wind: 17 mph from North

Location: Roanoke Regional Airport

Current Time: Oct 18, 2019 at 12:33:38 pm

Latest Report: Oct 18, 2019 at 11:54 am


Visibility: 10 mi

Pressure: 30.04 "Hg

Humidity: 41%

Dew Point: 33 °F

Location of RoanokeLocation

Past Weather in Roanoke — Graph

°F

Roanoke Temperature Yesterday

Maximum temperature yesterday: 61 °F (at 3:54 pm)
Minimum temperature yesterday: 49 °F (at 5:54 am)
Average temperature yesterday: 53 °F

High & Low Weather Summary for the Past Weeks

 TemperatureHumidityPressure
High97 °F (Oct 3, 3:54 pm)97% (Oct 16, 10:54 am)30.40 "Hg (Oct 16, 10:54 am)
Low46 °F (Oct 15, 7:54 am)16% (Oct 4, 2:54 pm)29.66 "Hg (Oct 16, 2:54 pm)
Average62 °F66%30.09 "Hg
* Reported Oct 3 10:54 am — Oct 18 10:57 am, Roanoke. Weather by CustomWeather, © 2019

Note: Actual official high and low records may vary slightly from our data, if they occured in-between our weather recording intervals... More about our weather records

Advertising

Roanoke Weather History for the Previous 24 Hours

Scroll right to see more
 ConditionsComfort  
Time TempWeatherWind HumidityBarometerVisibility
10:57 am
Fri, Oct 18
56 °FSunny.5 mph44%30.07 "Hg10 mi
9:54 am54 °FSunny.8 mph51%30.04 "Hg10 mi
8:54 am52 °FSunny.No wind53%30.03 "Hg10 mi
8:37 am49 °FSunny.No wind61%30.04 "Hg10 mi
7:54 am47 °FSunny.7 mph61%30.03 "Hg10 mi
6:54 am48 °FClear.8 mph59%30.01 "Hg10 mi
5:54 am46 °FClear.12 mph66%30.00 "Hg10 mi
4:54 am47 °FClear.12 mph61%29.97 "Hg10 mi
3:54 am47 °FPassing clouds.6 mph64%29.96 "Hg10 mi
2:54 am50 °FPassing clouds.6 mph57%29.95 "Hg10 mi
1:54 am50 °FPassing clouds.9 mph54%29.95 "Hg10 mi
12:54 am52 °FPassing clouds.12 mph50%29.96 "Hg10 mi
11:54 pm
Thu, Oct 17
51 °FPassing clouds.9 mph52%29.95 "Hg10 mi
10:54 pm52 °FPassing clouds.12 mph53%29.96 "Hg10 mi
9:54 pm51 °FPassing clouds.13 mph54%29.95 "Hg10 mi
8:54 pm51 °FPassing clouds.7 mph52%29.93 "Hg10 mi
7:54 pm52 °FClear.8 mph49%29.90 "Hg10 mi
6:54 pm56 °FClear.12 mph40%29.87 "Hg10 mi
5:54 pm58 °FSunny.10 mph38%29.86 "Hg10 mi
4:54 pm60 °FSunny.16 mph36%29.85 "Hg10 mi
3:54 pm61 °FSunny.12 mph35%29.82 "Hg10 mi
2:54 pm60 °FSunny.21 mph36%29.82 "Hg10 mi
1:54 pm58 °FPassing clouds.21 mph38%29.83 "Hg10 mi
12:54 pm56 °FPassing clouds.17 mph40%29.84 "Hg10 mi
Weather by CustomWeather, © 2019

See weather overview